STARLINK-35223

Last updated on Mon Oct 06 2025 00:02:05 GMT+0000 (Coordinated Universal Time)

1 65494U 25198C 25278.50001156 .00014197 00000+0 26307-3 0 9997 2 65494 53.1587 280.5027 0001194 74.3439 77.8312 15.49286588 5377

Satellite not in orbit

STARLINK-35223